When you browse on this site, cookies collect data to enhance your experience and personalize the content and advertising you see.
Visit our Privacy Policy to learn more. By continuing to use the site, you agree to this use of cookies and data.
  • In Czech Republic
  • List of Countries
  • For 7 days
  • Water Temperature
  • Weather Map
  • Weather Widgets
  • user-avatar
    Login

    Hourly Weather Garmisch-Partenkirchen

    Today, 23 October, Wednesday

    Time Temperature Precipitation Wind Pressure Humidity
    00:00 +10°C° 0 mm 2 mps 678 mmHg 83%
    01:00 +10°C° 0 mm 2 mps 678 mmHg 82%
    02:00 +9°C° 0 mm 2 mps 678 mmHg 81%
    03:00 +9°C° 0 mm 2 mps 678 mmHg 80%
    04:00 +9°C° 0 mm 2 mps 677 mmHg 78%
    05:00 +9°C° 0 mm 2 mps 677 mmHg 77%
    06:00 +9°C° 0 mm 2 mps 677 mmHg 75%
    07:00 +9°C° 0 mm 2 mps 677 mmHg 73%
    08:00 +12°C° 0 mm 2 mps 677 mmHg 66%
    09:00 +15°C° 0 mm 2 mps 677 mmHg 59%
    10:00 +18°C° 0 mm 2 mps 678 mmHg 52%
    11:00 +19°C° 0 mm 2 mps 678 mmHg 48%
    12:00 +21°C° 0 mm 1 mps 678 mmHg 45%
    13:00 +23°C° 0 mm 1 mps 678 mmHg 41%
    14:00 +21°C° 0 mm 1 mps 677 mmHg 48%
    15:00 +20°C° 0 mm 1 mps 676 mmHg 55%
    16:00 +19°C° 0 mm 1 mps 676 mmHg 62%
    17:00 +16°C° 0 mm 2 mps 676 mmHg 64%
    18:00 +14°C° 0 mm 2 mps 675 mmHg 66%
    19:00 +12°C° 0 mm 2 mps 675 mmHg 69%
    20:00 +12°C° 0 mm 2 mps 675 mmHg 67%
    21:00 +11°C° 0 mm 3 mps 674 mmHg 66%
    22:00 +10°C° 0 mm 3 mps 674 mmHg 65%
    23:00 +10°C° 0 mm 3 mps 674 mmHg 66%

    Tomorrow, 24 October, Thursday

    Time Temperature Precipitation Wind Pressure Humidity
    00:00 +10°C° 0 mm 3 mps 674 mmHg 66%
    01:00 +10°C° 0 mm 3 mps 674 mmHg 67%
    02:00 +10°C° 0 mm 3 mps 673 mmHg 67%
    03:00 +11°C° 0 mm 3 mps 673 mmHg 66%
    04:00 +11°C° 0 mm 3 mps 673 mmHg 66%
    05:00 +11°C° 0 mm 3 mps 673 mmHg 65%
    06:00 +11°C° 0 mm 3 mps 673 mmHg 65%
    07:00 +11°C° 0 mm 3 mps 673 mmHg 64%
    08:00 +12°C° 0 mm 3 mps 673 mmHg 61%
    09:00 +15°C° 0 mm 2 mps 674 mmHg 58%
    10:00 +16°C° 0 mm 2 mps 674 mmHg 55%
    11:00 +17°C° 0 mm 2 mps 674 mmHg 54%
    12:00 +19°C° 0 mm 1 mps 674 mmHg 52%
    13:00 +20°C° 0 mm 1 mps 674 mmHg 51%
    14:00 +19°C° 0 mm 1 mps 674 mmHg 57%
    15:00 +18°C° 0 mm 1 mps 674 mmHg 64%
    16:00 +16°C° 0 mm 1 mps 674 mmHg 71%
    17:00 +14°C° 0 mm 1 mps 674 mmHg 76%
    18:00 +13°C° 0 mm 1 mps 674 mmHg 81%
    19:00 +11°C° 0 mm 1 mps 674 mmHg 85%
    20:00 +11°C° 0 mm 1 mps 674 mmHg 87%
    21:00 +11°C° 0 mm 1 mps 675 mmHg 88%
    22:00 +10°C° 0 mm 1 mps 675 mmHg 89%
    23:00 +11°C° 0.2 mm 1 mps 675 mmHg 89%

    Day after tomorrow, 25 October, Friday

    Time Temperature Precipitation Wind Pressure Humidity
    00:00 +11°C° 0.2 mm 1 mps 676 mmHg 90%
    01:00 +11°C° 0.2 mm 1 mps 676 mmHg 90%
    02:00 +11°C° 0.4 mm 1 mps 676 mmHg 92%
    03:00 +11°C° 0.4 mm 1 mps 677 mmHg 93%
    04:00 +11°C° 0.4 mm 1 mps 677 mmHg 95%
    05:00 +10°C° 0.4 mm 1 mps 677 mmHg 96%
    06:00 +10°C° 0.4 mm 1 mps 677 mmHg 96%
    07:00 +10°C° 0.4 mm 1 mps 678 mmHg 96%
    08:00 +11°C° 0.1 mm 1 mps 678 mmHg 93%
    09:00 +10°C° 0.1 mm 0 mps 678 mmHg 90%
    10:00 +11°C° 0.1 mm 0 mps 679 mmHg 87%
    11:00 +11°C° 0 mm 0 mps 679 mmHg 84%
    12:00 +13°C° 0 mm 1 mps 679 mmHg 82%
    13:00 +13°C° 0 mm 1 mps 678 mmHg 79%
    14:00 +13°C° 0 mm 1 mps 678 mmHg 79%
    15:00 +13°C° 0 mm 1 mps 678 mmHg 79%
    16:00 +14°C° 0 mm 1 mps 677 mmHg 79%
    17:00 +12°C° 0 mm 1 mps 677 mmHg 84%
    18:00 +11°C° 0 mm 1 mps 677 mmHg 89%
    19:00 +9°C° 0 mm 1 mps 677 mmHg 94%
    20:00 +9°C° 0 mm 1 mps 677 mmHg 92%
    21:00 +9°C° 0 mm 1 mps 677 mmHg 91%
    22:00 +9°C° 0 mm 1 mps 677 mmHg 90%
    23:00 +9°C° 0 mm 1 mps 677 mmHg 88%

    26 October, Saturday

    Time Temperature Precipitation Wind Pressure Humidity
    00:00 +9°C° 0 mm 1 mps 677 mmHg 86%
    01:00 +9°C° 0 mm 1 mps 677 mmHg 84%
    02:00 +9°C° 0 mm 1 mps 677 mmHg 83%
    03:00 +9°C° 0 mm 1 mps 677 mmHg 82%
    04:00 +9°C° 0 mm 1 mps 677 mmHg 82%
    05:00 +9°C° 0 mm 1 mps 677 mmHg 81%
    06:00 +9°C° 0 mm 1 mps 677 mmHg 81%
    07:00 +9°C° 0 mm 1 mps 677 mmHg 81%
    08:00 +11°C° 0 mm 1 mps 678 mmHg 73%
    09:00 +14°C° 0 mm 1 mps 678 mmHg 66%
    10:00 +16°C° 0 mm 0 mps 679 mmHg 58%
    11:00 +19°C° 0 mm 1 mps 679 mmHg 55%
    12:00 +20°C° 0 mm 1 mps 679 mmHg 53%
    13:00 +20°C° 0 mm 1 mps 679 mmHg 50%
    14:00 +19°C° 0 mm 1 mps 678 mmHg 57%
    15:00 +18°C° 0 mm 1 mps 678 mmHg 63%
    16:00 +16°C° 0 mm 1 mps 678 mmHg 70%
    17:00 +14°C° 0 mm 1 mps 677 mmHg 76%
    18:00 +13°C° 0 mm 1 mps 677 mmHg 82%
    19:00 +11°C° 0 mm 1 mps 677 mmHg 88%
    20:00 +11°C° 0 mm 1 mps 677 mmHg 88%
    21:00 +10°C° 0 mm 1 mps 677 mmHg 88%
    22:00 +10°C° 0 mm 1 mps 677 mmHg 88%
    23:00 +10°C° 0 mm 1 mps 677 mmHg 88%

    27 October, Sunday

    Time Temperature Precipitation Wind Pressure Humidity
    00:00 +10°C° 0 mm 1 mps 677 mmHg 88%
    01:00 +10°C° 0 mm 1 mps 677 mmHg 88%
    02:00 +10°C° 0 mm 1 mps 677 mmHg 87%
    03:00 +10°C° 0 mm 1 mps 677 mmHg 86%
    04:00 +10°C° 0 mm 1 mps 677 mmHg 85%
    05:00 +9°C° 0 mm 1 mps 677 mmHg 85%
    06:00 +9°C° 0 mm 1 mps 677 mmHg 85%
    07:00 +9°C° 0 mm 1 mps 677 mmHg 84%
    08:00 +10°C° 0 mm 1 mps 678 mmHg 79%
    09:00 +12°C° 0 mm 1 mps 678 mmHg 75%
    10:00 +13°C° 0 mm 1 mps 679 mmHg 70%
    11:00 +13°C° 0 mm 1 mps 679 mmHg 70%
    12:00 +14°C° 0 mm 1 mps 679 mmHg 70%
    13:00 +14°C° 0 mm 1 mps 679 mmHg 70%
    14:00 +13°C° 0 mm 1 mps 678 mmHg 74%
    15:00 +13°C° 0 mm 1 mps 678 mmHg 78%
    16:00 +12°C° 0 mm 1 mps 678 mmHg 83%
    17:00 +11°C° 0 mm 1 mps 678 mmHg 87%
    18:00 +11°C° 0 mm 1 mps 678 mmHg 92%
    19:00 +9°C° 0 mm 0 mps 678 mmHg 96%
    20:00 +9°C° 0 mm 0 mps 678 mmHg 96%
    21:00 +9°C° 0 mm 0 mps 678 mmHg 96%
    22:00 +8°C° 0 mm 0 mps 678 mmHg 96%
    23:00 +8°C° 0 mm 0 mps 678 mmHg 95%

    28 October, Monday

    Time Temperature Precipitation Wind Pressure Humidity
    00:00 +8°C° 0 mm 0 mps 677 mmHg 94%
    01:00 +8°C° 0 mm 0 mps 677 mmHg 94%
    02:00 +9°C° 0.2 mm 0 mps 677 mmHg 94%
    03:00 +9°C° 0.2 mm 0 mps 677 mmHg 94%
    04:00 +9°C° 0.2 mm 0 mps 676 mmHg 94%
    05:00 +9°C° 0.7 mm 0 mps 676 mmHg 95%
    06:00 +9°C° 0.7 mm 0 mps 676 mmHg 96%
    07:00 +9°C° 0.7 mm 0 mps 676 mmHg 97%
    08:00 +9°C° 0.9 mm 0 mps 676 mmHg 97%
    09:00 +9°C° 0.9 mm 0 mps 676 mmHg 97%
    10:00 +9°C° 0.9 mm 0 mps 676 mmHg 97%
    11:00 +9°C° 0.7 mm 0 mps 676 mmHg 97%
    12:00 +10°C° 0.7 mm 0 mps 676 mmHg 96%
    13:00 +11°C° 0.7 mm 1 mps 676 mmHg 95%
    14:00 +10°C° 0.2 mm 0 mps 676 mmHg 95%
    15:00 +10°C° 0.2 mm 0 mps 676 mmHg 95%
    16:00 +10°C° 0.2 mm 0 mps 675 mmHg 94%
    17:00 +10°C° 0.3 mm 0 mps 675 mmHg 95%
    18:00 +10°C° 0.3 mm 0 mps 675 mmHg 96%
    19:00 +10°C° 0.3 mm 1 mps 676 mmHg 97%
    20:00 +10°C° 0.3 mm 1 mps 676 mmHg 97%
    21:00 +10°C° 0.3 mm 1 mps 676 mmHg 97%
    22:00 +10°C° 0.3 mm 1 mps 676 mmHg 96%
    23:00 +10°C° 0.3 mm 1 mps 676 mmHg 96%

    29 October, Tuesday

    Time Temperature Precipitation Wind Pressure Humidity
    00:00 +10°C° 0.3 mm 1 mps 676 mmHg 96%
    01:00 +10°C° 0.3 mm 1 mps 675 mmHg 96%
    02:00 +10°C° 0.4 mm 1 mps 675 mmHg 96%
    03:00 +10°C° 0.4 mm 1 mps 675 mmHg 96%
    04:00 +9°C° 0.4 mm 0 mps 675 mmHg 97%
    05:00 +10°C° 1 mm 1 mps 675 mmHg 97%
    06:00 +9°C° 1 mm 1 mps 675 mmHg 97%
    07:00 +9°C° 1 mm 1 mps 675 mmHg 98%
    08:00 +9°C° 1.5 mm 1 mps 675 mmHg 98%
    09:00 +9°C° 1.5 mm 1 mps 675 mmHg 98%
    10:00 +8°C° 1.5 mm 1 mps 676 mmHg 98%
    11:00 +8°C° 1.1 mm 1 mps 676 mmHg 98%
    12:00 +8°C° 1.1 mm 1 mps 676 mmHg 98%
    13:00 +7°C° 1.1 mm 1 mps 676 mmHg 98%
    14:00 +7°C° 1.3 mm 1 mps 676 mmHg 98%
    15:00 +7°C° 1.3 mm 1 mps 676 mmHg 98%
    16:00 +6°C° 1.3 mm 1 mps 676 mmHg 98%
    17:00 +6°C° 1.7 mm 1 mps 676 mmHg 98%
    18:00 +6°C° 1.7 mm 1 mps 677 mmHg 98%
    19:00 +4°C° 1.7 mm 2 mps 677 mmHg 98%
    20:00 +3°C° 1.7 mm 2 mps 677 mmHg 98%
    21:00 +4°C° 1.7 mm 1 mps 678 mmHg 98%
    22:00 +3°C° 1.7 mm 1 mps 678 mmHg 98%
    23:00 +3°C° 0.6 mm 1 mps 678 mmHg 98%
    Show more